sat.trackr.live / text

‹ back to catalog

STARLINK-4320

NORAD 53059 · 2022-077S

PAYLOAD ACTIVE UNKNOWN

§ Identity

Operator
Country
US
Launch date
2022-07-11
Launch site
AFWTR
Launch vehicle
Mass (kg)
RCS (m²)

Purposes: comms

External: N2YO · Heavens-Above · Gunter

§ Orbital elements

Epoch: 2026-09-18T22:16:04.276128Z

Period
93.90 min
Inclination
97.2837°
Eccentricity
0.0003523
Mean motion
15.33518845 rev/d
Perigee alt
462.9 km
Apogee alt
467.7 km
Semi-major
6,843.5 km
B*
-2.4957e-4
RAAN
76.8071°
Arg perigee
120.7579°
Mean anomaly
239.4011°
Rev number
23,005

§ Raw data

STARLINK-43201 53059U 22077S   26261.92782727 -.00008144  00000+0 -24957-3 0  99992 53059  97.2837  76.8071 0003523 120.7579 239.4011 15.33518845230056

JSON: /api/v1/satellites/53059 · /tle

For live sub-satellite position, see the globe view (requires WebGL).

§ Visibility from observer

Set your observer location to see the next 7 days of passes ≥ 10°. The values pass through the URL so the page stays shareable.

No JS? Fill the form by hand. The geolocation button needs JavaScript.